Location: Cahas Mountain Overlook
(37.0833°N, 80.1000°W)
Time: 17:42:27
(UTC-05:00)

ISS - Pass Details

Date: 07 December 2021
Orbit: 413 x 422 km, 51.6° (Epoch: 28 January)

Event Time Altitude Azimuth Distance (km) Brightness Sun altitude
Rises 17:16:02 0° 319° (NW) 2,382 0.3 -3.1°
Reaches altitude 10° 17:18:23 10° 332° (NNW) 1,512 -0.9 -3.5°
Maximum altitude 17:21:16 25° 31° (NNE) 886 -2.6 -4.1°
Drops below altitude 10° 17:24:09 10° 89° (E) 1,500 -1.5 -4.6°
Enters shadow 17:26:13 - 102° (ESE) 2,265 -0.5 -4.9°
